www.pogodaiklimat.ru

Погода и климат >> Архив погоды >> Россия >> Московская область >> Подмосковная


ПОГОДА в Подмосковной

  • Прогноз погоды в Подмосковной
  • Монитор погоды в Подмосковной

АРХИВ ПОГОДЫ в Подмосковной

Время (UTC), дата Ветер
(напр.,м/с)
 
Видим.   Явления Облачность Т
(С)
Тd
(С)
f
(%)
Тe
(С)
Тes
(С)
Комфортность P
(гПа)
Po
(гПа)
Тmin
(С)
Tmax
(С)
R
(мм)
R24
(мм)
S
(см)
00 18.08 СВ 2 4000 м слаб. ливневой дождь 10/10 300 м
[Cb cap]
+14.8 +14.2 96 +14 +14 1007.7 987.8
03 18.08 В 3 4000 м слаб. ливневой дождь 10/10 300 м
[Cb cap]
+16.5 +15.5 94 +16 +16 1006.5 986.8 +14.5 6
06 18.08 В 3 4000 м слаб. ливневой дождь 10/10 300 м
[Cb cap]
+17.7 +16.7 94 +18 +18 1006.8 987.2 +14.5 8
09 18.08 Ю 3 4000 м дымка {ливн. осадки} 10/10 300 м
[Cb cap]
+19.3 +16.6 84 +21 +21 комфорт 1007.8 988.3
12 18.08 Ю 2 10 км {ливн. осадки} 9/9 300 м
[Cb cap]
+20.6 +16.3 76 +24 +25 комфорт 1009.0 989.5
15 18.08 Ю 3 10 км {ливн. осадки} 9/9 300 м
[Cb cap]
+18.0 +14.8 82 +18 +18 1010.8 991.1 5
18 18.08 Ю 3 4000 м дымка {ливн. осадки} 10/10 300 м
[Cb cap]
+16.3 +14.9 91 +16 +16 1011.8 992.0 +21.1 3
21 18.08 Ю 2 4000 м слаб. ливневой дождь 10/10 300 м
[Cb cap]
+15.7 +14.7 94 +16 +16 1012.2 992.3
00 19.08 штиль 0 4000 м в посл. час ливневой дождь 10/10 300 м
[Cb cap]
+15.0 +14.3 96 +15 +15 1013.1 993.2
03 19.08 штиль 0 4000 м дымка 10/10 300 м
[Cb cap]
+15.1 +14.4 96 +15 +15 1014.1 994.1 +15.0 0.8
06 19.08 З 1 4000 м дымка 10/10 300 м
[Cb cap]
+15.6 +14.0 90 +16 +16 1016.2 996.2 +15.0 0.8
09 19.08 СЗ 1 10 км 8/8 600 м
[Cu Sc]
+18.8 +13.6 72 +21 +24 комфорт 1017.1 997.3
12 19.08 Ю 2 10 км 10/10 600 м
[Cb cap]
+19.1 +14.5 75 +21 +21 комфорт 1018.4 998.6
15 19.08 ЮЗ 2 10 км 6/6 600 м
[Sc]
+20.2 +14.8 71 +23 +24 комфорт 1019.1 999.4
18 19.08 Ю 1 4000 м дымка ясно +14.5 +13.5 94 +15 +15 1020.5 1000.3 +20.4
21 19.08 ЮВ 1 4000 м дымка ясно +12.7 +12.2 97 +13 +13 1021.3 1001.0
00 20.08 Ю 1 4000 м дымка ясно +13.1 +12.6 97 +13 +13 1021.0 1000.7
03 20.08 Ю 1 4000 м дымка ясно +13.3 +12.8 97 +13 +14 1021.8 1001.5 +12.3
06 20.08 Ю 2 10 км ясно +21.1 +15.0 68 +24 +29 комфорт 1022.0 1002.3 +12.3
09 20.08 Ю 3 10 км ясно +26.4 +14.0 46 +29 +38 жарко 1021.2 1001.8
12 20.08 Ю 3 10 км 3/3 600 м
[Sc diur, vesp Ci fib]
+27.7 +13.7 42 +30 +34 жарко 1020.9 1001.6
15 20.08 Ю 2 10 км 3/3 600 м
[Sc diur, vesp Ci fib]
+26.6 +14.2 46 +29 +30 жарко 1021.1 1001.8
18 20.08 штиль 0 10 км 9/9 600 м
[Sc diur, vesp]
+20.6 +17.2 81 +24 +24 комфорт 1023.2 1003.4 +27.9
21 20.08 Ю 1 4000 м дымка 3/3 600 м
[Sc diur, vesp]
+17.0 +16.2 95 +18 +18 1023.6 1003.6
00 21.08 Ю 1 2000 м дымка ясно +15.1 +14.6 97 +16 +16 1024.2 1004.0
03 21.08 штиль 0 500 м туман 4/4 600 м
[Sc diur, vesp]
+15.2 +14.7 97 +15 +15 1025.2 1005.0 +14.1
06 21.08 С 1 4000 м дымка {туман} 8/4 600 м
[Sc diur, vesp Ci fib]
+20.5 +18.1 86 +25 +29 комфорт 1025.5 1005.7 +14.1
09 21.08 З 1 10 км 9/9 600 м
[Sc diur, vesp]
+24.5 +16.2 60 +28 +29 душно 1024.8 1005.3
12 21.08 С 1 10 км 8/6 600 м
[Sc diur, vesp Ci fib]
+25.8 +15.1 52 +29 +32 душно 1024.1 1004.7
15 21.08 В 2 10 км 8/3 600 м
[Sc diur, vesp Ac trans Ci fib]
+25.0 +15.8 57 +28 +29 жарко 1022.9 1003.4
18 21.08 ЮВ 1 10 км 4/1 600 м
[Sc diur, vesp Ac trans Ci fib]
+20.8 +16.7 77 +25 +25 комфорт 1022.7 1003.0 +26.4
21 21.08 ЮВ 2 10 км ясно +20.0 +16.8 82 +23 +23 комфорт 1021.8 1002.0
00 22.08 Ю 3 4000 м дымка ясно +19.2 +17.1 88 +21 +21 комфорт 1020.9 1001.1
03 22.08 Ю 2 4000 м дымка ясно +18.6 +16.6 88 +20 +20 1019.7 999.9 +18.6
06 22.08 ЮЗ 2 10 км 5/0
[Ac trans Ci fib]
+23.9 +16.4 63 +27 +31 жарко 1019.2 999.8 +18.6
09 22.08 СЗ 4 10 км 10/10 300 м
[Cb cap]
+20.3 +15.6 74 +23 +23 комфорт 1021.5 1001.8
12 22.08 СЗ 4 10 км 10/8 300 м
[Cb cap Ac trans Ci fib]
+19.2 +11.9 63 +20 +21 1023.5 1003.6
15 22.08 СЗ 2
{10}
10 км 9/4 300 м
[Cb cap Ac trans Ci fib]
+18.2 +11.4 64 +19 +19 1024.5 1004.5
18 22.08 СЗ 1 10 км 6/0
[Ci fib]
+14.0 +11.0 82 +14 +14 1026.3 1006.0 +24.7
21 22.08 штиль 0 4000 м дымка 8/0
[Ci fib]
+10.5 +9.8 95 +10 +10 1027.8 1007.2
00 23.08 Ю 1 4000 м дымка ясно +8.8 +8.3 97 +8 +8 1028.9 1008.1
03 23.08 штиль 0 4000 м дымка 5/0
[Ci fib]
+7.8 +7.3 97 +7 +7 1029.7 1008.8 +7.4
06 23.08 С 2 10 км 5/0
[Ci fib]
+16.0 +11.1 73 +16 +21 1029.9 1009.7 +7.4
09 23.08 СЗ 2 10 км 6/3 600 м
[Sc diur, vesp Ci fib]
+21.4 +10.2 49 +23 +30 комфорт 1029.6 1009.7
12 23.08 С 3 10 км 6/5 600 м
[Sc diur, vesp Ci fib]
+22.4 +8.5 41 +24 +27 комфорт 1028.4 1008.6
15 23.08 СЗ 2 10 км 3/3 600 м
[Sc diur, vesp Ci fib]
+21.5 +7.7 41 +22 +23 комфорт 1027.6 1007.7
18 23.08 Ю 1 4000 м дымка ясно +12.8 +11.0 89 +13 +13 1028.1 1007.7 +23.0
21 23.08 Ю 1 4000 м дымка ясно +10.4 +9.6 95 +10 +10 1028.2 1007.6
00 24.08 Ю 1 4000 м дымка ясно +8.9 +8.3 96 +8 +8 1028.0 1007.3
03 24.08 Ю 1 4000 м дымка 3/0
[Ac trans Ci fib]
+8.0 +7.5 97 +7 +7 1027.7 1006.9 +7.4
06 24.08 ЮЗ 1 10 км 6/0
[Ac trans Ci fib]
+19.0 +10.2 57 +21 +25 комфорт 1026.3 1006.3 +7.4
09 24.08 ЮЗ 2 10 км 9/6 600 м
[Sc Ci fib]
+21.5 +9.2 45 +23 +26 комфорт 1024.8 1005.0
12 24.08 З 2
{10}
10 км 4/4 600 м
[Sc]
+23.3 +8.3 38 +24 +29 комфорт 1022.6 1003.0
15 24.08 З 1 10 км 9/6 300 м
[Cb cap Ci fib]
+22.0 +9.5 45 +24 +24 комфорт 1022.2 1002.5
18 24.08 ЮЗ 1 10 км 8/8 600 м
[Cb cap]
+18.1 +11.1 64 +19 +19 1022.7 1002.7 +23.7
21 24.08 СЗ 2 10 км 6/6 600 м
[Sc]
+15.6 +10.7 73 +16 +16 1023.6 1003.5

 

Местоположение метеостанции Подмосковная (Московская область, Россия): широта 55.72 долгота 37.20 высота над уровнем моря 168 м.

В архиве по умолчанию представлена погода в Подмосковной за последнюю неделю. Архивные данные за месяц целиком и за предыдущие месяцы, начиная с января 2011 года, Вы можете получить, выбрав интересующий диапазон дат из раскрывающегося списка и нажав кнопку "Ввод!".


*Определитесь, кто Вы:
робот инопланетянин человек

Внимание! Время в таблицах - всемирное. Для получения местного времени необходимо прибавить поправку, которая равна 3 ч.

Смотрите также архив погоды в соседних городах и на ближайших метеорологических станциях:

Погода в Немчиновке (город Москва, Россия) (11 км)
Погода в Красногорске (Московская область, Россия) (13 км)
Погода в Толстопальцево (город Москва, Россия) (14 км)
Погода в Внуково (Московская область, Россия) (14 км)
Погода в Москве (Строгино) (город Москва, Россия) (15 км)
Погода в Москве (Тушино) (город Москва, Россия) (21 км)
Погода в Москве (Балчуг) (город Москва, Россия) (27 км)
Погода в Москве (Бутово) (город Москва, Россия) (28 км)
Погода в Москве (город Москва, Россия) (29 км)
Погода в Долгопрудном (Московская область, Россия) (31 км)

Пояснения к столбцам:

Ветер - указаны скорость ветра в м/с - средняя за 10 мин, порывы в срок и между сроками (в фигурных скобках) и направление, откуда дует ветер: С - северный, СВ - северо-восточный, В - восточный, ЮВ - юго-восточный, Ю - южный, ЮЗ - юго-западный, З - западный, СЗ - северо-западный.
Видимость - горизонтальная дальность видимости в метрах или километрах. При видимости от 1 до 10 км при отсутствии осадков обычно наблюдается дымка, при ухудшении видимости до 1 км и менее - туман. В сухую погоду видимость может ухудшаться дымом, пылью или мглою.
Явления - указаны атмосферные явления, наблюдавшиеся в срок или в последний час перед сроком; фигурными скобками обозначены явления, наблюдавшиеся между сроками (за 1-3 часа до срока); квадратными скобками обозначены град или гололедные отложения с указанием их диаметра в мм.
Облачность - указаны через наклонную черту общая и нижняя облачность в баллах и высота нижней границы облаков в метрах; квадратными скобками обозначены формы облаков: Ci - перистые, Cs - перисто-слоистые, Cc - перисто-кучевые, Ac - высококучевые, As - высокослоистые, Sc - слоисто-кучевые, Ns - слоисто-дождевые, Cu - кучевые, Cb - кучево-дождевые. Подробнее классификацию облаков см. в Атласе облаков (PDF).
T - Температура воздуха - температура, измеренная на высоте 2 м над землей.
Td - Температура точки росы - температура, при понижении до которой содержащийся в воздухе водяной пар достигнет насыщения.
f - Относительная влажность воздуха - влажноcть воздуха, измеренная на высоте 2 м над землей.
Te - Эффективная температура - температура, которую ощущает одетый по сезону человек в тени. Характеристика душности погоды. При расчете учитывается влияние влажности воздуха и скорости ветра на теплоощущения человека.
Tes - Эффективная температура на солнце - температура, которую ощущает человек, с поправкой на солнечный нагрев. Характеристика знойности погоды. Зависит от высоты солнца над горизонтом, облачности и скорости ветра. Ночью, в пасмурную погоду, а также при ветре 12 м/с и более поправка равна нулю.
P - Атмосферное давление - приведенное к уровню моря атмосферное давление.
Po - Атмосферное давление - измеренное на уровне метеостанции атмосферное давление.
Tmin - Минимальная температура - минимум температуры воздуха на высоте 2 м над землей.
Tmax - Максимальная температура - максимум температуры воздуха на высоте 2 м над землей.
R - Количество осадков - Количество выпавших осадков за период времени, мм. При наведении курсора мыши на число - период времени, за который выпало указанное количество осадков.
R24 - Количество осадков - Количество выпавших осадков за 24 часа, мм.
S - Снежный покров - Высота снежного покрова, см. При наведении курсора мыши на число - состояние снежного покрова и степень покрытия местности в баллах.